Вернуться в каталог

STARLINK-38173

АктивенСвязьSSO
NORAD 100151·PAYLOAD·🇺🇸 United States

Запущен Jul 25, 2026 с Vandenberg Space Force Base

Loading…

Ближайшие Пролёты (ближайшие 24 часа)

TLE

СвежийSource: Space-Track

Эпоха: Sep 14, 2026, 22:44 UTC

1 A0151U 26171D   26257.94781570 -.00672592  00000-0 -21985-1 0  9996
2 A0151  97.2840 290.4448 0001136 129.2598 230.8746 15.34105529  8044

Отслеживайте STARLINK-38173 в реальном времени с AllMySat

Download on the App Store